Regional Weather Roundup
Issued by NWS

Home | Current Version | Previous Version | Graphics & Text | Print | Product List | Glossary On
Versions: 1 2 3 4 5 6 7 8 9 10 11 12 13 14 15 16 17 18 19 20 21 22 23 24 25 26 27 28 29 30 31 32 33 34 35 36 37 38 39 40 41 42 43 44 45 46 47 48 49 50
000
ASUS43 KTOP 020908
RWRKS

WEATHER ROUNDUP FOR KANSAS
NATIONAL WEATHER SERVICE GOODLAND KS
400 AM CDT SUN AUG 02 2015

NOTE:  "FAIR" INDICATES FEW OR NO CLOUDS BELOW 12,000 FEET WITH NO
SIGNIFICANT WEATHER AND/OR OBSTRUCTIONS TO VISIBILITY.

KSZ001>006-013>018-027>032-041>047-021000-
NORTHWEST KANSAS

CITY           SKY/WX    TMP DP  RH WIND       PRES   REMARKS
GOODLAND       PTCLDY    69  64  84 SW7       29.99F
HAYS           MOCLDY    72  61  68 S5        29.94S
HILL CITY      MOCLDY    69  65  86 CALM      29.94S
RUSSELL        MOCLDY    71  69  93 S8        29.92F
$$

KSZ061>065-074>080-084>089-021000-
SOUTHWEST KANSAS

CITY           SKY/WX    TMP DP  RH WIND       PRES   REMARKS
DODGE CITY     MOCLDY    69  67  93 S9        29.98S
ELKHART          N/A     71  64  78 S12         N/A
GARDEN CITY    PTCLDY    70  67  90 S5        29.97S
GREAT BEND     MOCLDY    72  66  83 S7        29.95S
LIBERAL        CLOUDY    72  63  73 S9        29.97F
PRATT          MOCLDY    70  68  94 S7        29.97S
$$

KSZ066>073-081>083-090>101-021000-
SOUTHEAST KANSAS

CITY           SKY/WX    TMP DP  RH WIND       PRES   REMARKS
CHANUTE        PTCLDY    71  66  84 S7        29.95F
COFFEYVILLE    CLEAR     69  66  90 CALM      29.96S
HUTCHINSON     PTCLDY    74  68  81 S6        29.95S
MEDICINE LODGE   N/A     73  70  90 SE5       29.95S
NEWTON         PTCLDY    72  64  78 S5        29.98S
PARSONS        CLEAR     67  66  97 CALM      29.97S
WICHITA INTL   MOCLDY    73  68  84 S7        29.94F
WICHITA JABRA  PTCLDY    74  67  78 S7        29.95F
WICHITA MCCONL PTCLDY    72  67  83 S7        29.95F
WINFIELD       CLEAR     71  67  87 S6        29.96F
$$

KSZ007>012-019>026-033>040-048>060-102>105-021000-
NORTHEAST KANSAS

CITY           SKY/WX    TMP DP  RH WIND       PRES   REMARKS
CONCORDIA      PTCLDY    73  69  87 S13       29.91F
EMPORIA        PTCLDY    71  66  84 S7        29.94F
LAWRENCE       PTCLDY    69  66  90 SE3       29.93F
MANHATTAN      MOCLDY    75  70  84 SW7       29.91F
MARYSVILLE     CLEAR     73  70  88 S5        29.90F
OLATHE IND     PTCLDY    70  67  90 S6        29.95F
OLATHE EXE     PTCLDY    71  67  87 S6        29.94F
SALINA         PTCLDY    75  70  84 S7        29.92F
TOPEKA BILLARD CLEAR     74  69  85 S3        29.92F
TOPEKA FORBES  CLEAR     73  68  84 S5        29.93F
$$


USA.gov is the U.S. government's official web portal to all federal, state and local government web resources and services.